(L27) 29PREMOTE Observatory, Dauban  (N43.999832 E5.647040)  France.
   Observer J.-F. Soulier. 0.20-m f/4 Newtonian reflector + CCD.
(M38) Harsona Observatory, Nyiregyhaza  (N47.945815 E21.767190).  Observer T.
   Elek. 0.20-m f/4 reflector + CCD.
(M45) Starhopper Observatory, Sfantu Gheorghe  (N45.865582 E25.768900)
   Romania.  Observer F. Ursache. 0.41-m f/7.5 reflector + CMO.
(U94) iTelescope Observatory, Beryl Junction  (N37.737780 W113.697500)
   US/Utah.  Observer H. Sato. 0.51-m f/4.5 Corrected Dall-Kirkham +
   CCD0.51-m f/6.8 astrograph + f/4.5 focal reducer + CCD.
(W16) Pleasant Groves Observatory  (N34.711888 W86.231310)  US/Alabama.
   Observer M. Holbrook. 0.36-m reflector + CCD.
(Z28) Northern Skygems Observatory, Nerpio  (N38.165716 W2.326690)  Spain.
   Observers L. Buzzi, L. Demetz. Measurers L. Buzzi, G. Galli, A. Aletti.
   0.50-m f/6.9 astrograph + CCD.
(Z84) Calar Alto-Schmidt  (N37.224046 W2.548210)  Spain.  Observer F. Ocaña.
   Measurers E. Schwab, D. Koschny, M. Micheli. 0.8-m f/3 Schmidt + CCD.

Orbital elements:  Sar2753
   Perihelion 2025 Apr 11.19899 +/- 0.0244 TT =  4:46:32 (JD 2460776.69899)
Epoch 2024 Jul 17.0 TT = JDT 2460508.5   Sa: 0.2295              AutoNEOCP
q   5.01534254 +/- 0.000277         (J2000 ecliptic)
H   11.75 G 0.15                    Peri.   86.84920 +/- 0.0053
z  -0.0001137138 +/- 9.15e-6        Node    82.60913 +/- 0.00019
e   1.0005703 +/- 4.59e-5           Incl.   88.72930 +/- 0.00027
99 of 100 observations 2023 Oct. 9-2024 July 17; mean residual 0".41
Residuals in arcseconds: 
231009 F52  .09-  .32+    240710 L01  .24+  .10-    240712 K88  .08+  .41-    
231009 F52  .45+  .02+    240710 L01  .13+  .06+    240712 K88  .27+  .38+    
231009 F52  .30-  .29-    240710 Z28  .26-  .35+    240712 K88  .36-  .48+    
231215 W16  .01-  .08+    240710 Z28  .52-  .13+    240712 K88  .03-  .01+    
231215 W16  .10-  .24-    240710 U94  .48+  .17-    240712 104  .86-  .61+    
231215 W16  .36-  .22-    240710 U94  .10+  .26-    240712 K88  .09-  .12-    
240708 K88  .18+  .15+    240710 M38  .21+  .63+    240712 K88  .27-  .59+    
240708 K88  .67-  .61-    240710 L27  .45+  .88+    240712 104  .20+  .81+    
240708 K88  .10+  .58+    240710 M38  .83+  .46+    240713 K88  .00   .39-    
240709 K88  .17-  .05-    240710 K88  .09+  .19+    240713 K88  .31-  .22-    
240709 K88  .09-  .57-    240710 126  .29-  1.4+    240713 K88  .85-  .42+    
240709 K88  .42-  .20+    240710 K88  .18+  .06-    240713 K88  .37-  .00     
240709 K88  .33-  .02+    240710 L27  .52+  .47+    240714 G02  .78-  .04+    
240709 K88  .10-  .19+    240710 126  .97-  .54-    240714 K88  .16-  .24-    
240709 K88  .03-  .21-    240710 126  .11-  .26-    240714 G02  .62-  .06+    
240709 M38  1.3+  .66-    240710 L27  .60+  .24-    240714 K88  .30-  .10+    
240709 M38  .20+  1.2-    240710 126  .84-  1.1-    240714 K88  .11-  .30+    
240709 K88  .07+  .17+    240710 K88  .27-  .18+    240714 204  .29+  .55-    
240709 K88  .30+  .25+    240710 J95  .24+  .06-    240715 204  .37+  .60-    
240709 K88  .84+  .57+    240711 K88  .08-  .30-    240715 Z84  .23+  .06+    
240709 204  .10+  .26-    240711 J95  .44-  .15-    240715 Z84  .03-  .03+    
240709 204  .46+  .39-    240711 K51  .23+  .14-    240715 Z84  .03+  .08+    
240709 204  .20+  .04-    240711 K88  .15+  .40-    240715 K88  .22+  .07+    
240709 G00  .36+  .18+    240711 K51  .12+  .11-    240715 K88  .58-  .10+    
240709 G00  .09+  .72+    240711 K51  .19+  .09+    240716 G00  .30+  .21-    
240709 G00  .92+  .07-    240711 K51  .14+  .01+    240716 M45  .35-  .05+    
240710 K88  .22+  .05+    240711 K88  .58-  .37-    240716 M45  .10-  .17-    
240710 K88  .11+  .40-    240711 K88  .02+  .31+    240716 G00  .04-  .48-    
240710 M45  .37+  .42-    240711 K88  .36-  .12-    240716 G00  .26+  .25+    
240710 K88  .45+  .29-    240711 K88  .08-  .21-    240717 L02  .14+  .07+    
240710 M45  .15-  .18-    240712 M38  .31+  .80+    240717 L02( .34+  3.1+)   
240710 M45  .00   .01+    240712 K88  .25-  .30+    240717 L02  .35-  1.2+    
240710 M45  .16+  .68-    240712 M38  .53-  .20+    
240710 L01  .46+  .11-    240712 K88  .51-  .19+    

Ephemerides (geocentric):
Date (UTC) HH   RA             Dec           delta  r     elong  mag " sig PA
---- --------  ------------   ------------  ------ ------ -----  --- --------
2024 07 18 01  06 17 07.634   +71 35 39.26  5.9751 5.4141  52.3 19.9 .018  94
2024 07 18 02  06 17 13.044   +71 35 59.15  5.9747 5.4140  52.3 19.9 .018  94
2024 07 18 03  06 17 18.456   +71 36 19.04  5.9744 5.4139  52.4 19.9 .018  94
2024 07 18 04  06 17 23.871   +71 36 38.94  5.9740 5.4137  52.4 19.9 .018  94
2024 07 18 05  06 17 29.288   +71 36 58.85  5.9737 5.4136  52.4 19.9 .019  93
2024 07 18 06  06 17 34.708   +71 37 18.76  5.9733 5.4135  52.4 19.9 .019  93
2024 07 18 07  06 17 40.130   +71 37 38.67  5.9730 5.4134  52.4 19.9 .019  93
2024 07 18 08  06 17 45.555   +71 37 58.59  5.9726 5.4133  52.4 19.9 .019  93
2024 07 18 09  06 17 50.981   +71 38 18.51  5.9722 5.4132  52.4 19.9 .019  93
2024 07 18 10  06 17 56.411   +71 38 38.44  5.9719 5.4130  52.5 19.9 .019  93
2024 07 18 11  06 18 01.843   +71 38 58.37  5.9715 5.4129  52.5 19.9 .019  93
2024 07 18 12  06 18 07.277   +71 39 18.31  5.9712 5.4128  52.5 19.9 .019  93
2024 07 18 13  06 18 12.714   +71 39 38.25  5.9708 5.4127  52.5 19.9 .019  93
2024 07 18 14  06 18 18.153   +71 39 58.20  5.9705 5.4126  52.5 19.9 .020  93
2024 07 18 15  06 18 23.595   +71 40 18.15  5.9701 5.4124  52.5 19.9 .020  93
2024 07 18 16  06 18 29.039   +71 40 38.10  5.9697 5.4123  52.6 19.9 .020  93
2024 07 18 17  06 18 34.486   +71 40 58.07  5.9694 5.4122  52.6 19.9 .020  93
2024 07 18 18  06 18 39.935   +71 41 18.03  5.9690 5.4121  52.6 19.9 .020  93
2024 07 18 19  06 18 45.387   +71 41 38.00  5.9687 5.4120  52.6 19.9 .020  93
2024 07 18 20  06 18 50.841   +71 41 57.97  5.9683 5.4119  52.6 19.9 .020  93
2024 07 18 21  06 18 56.298   +71 42 17.95  5.9680 5.4117  52.6 19.9 .020  93
2024 07 18 22  06 19 01.757   +71 42 37.94  5.9676 5.4116  52.6 19.9 .020  93
2024 07 18 23  06 19 07.219   +71 42 57.92  5.9672 5.4115  52.7 19.9 .021  93
2024 07 19 00  06 19 12.683   +71 43 17.92  5.9669 5.4114  52.7 19.9 .021  93
2024 07 19 01  06 19 18.149   +71 43 37.91  5.9665 5.4113  52.7 19.9 .021  93
2024 07 19 02  06 19 23.619   +71 43 57.92  5.9662 5.4111  52.7 19.9 .021  93
2024 07 19 03  06 19 29.090   +71 44 17.92  5.9658 5.4110  52.7 19.9 .021  93
2024 07 19 04  06 19 34.564   +71 44 37.93  5.9654 5.4109  52.7 19.9 .021  93
2024 07 19 05  06 19 40.041   +71 44 57.95  5.9651 5.4108  52.7 19.9 .021  93
2024 07 19 06  06 19 45.520   +71 45 17.97  5.9647 5.4107  52.8 19.9 .021  93
2024 07 19 07  06 19 51.002   +71 45 38.00  5.9644 5.4106  52.8 19.9 .021  93
2024 07 19 08  06 19 56.486   +71 45 58.02  5.9640 5.4104  52.8 19.9 .021  93
2024 07 19 09  06 20 01.973   +71 46 18.06  5.9636 5.4103  52.8 19.9 .022  93
2024 07 19 10  06 20 07.462   +71 46 38.10  5.9633 5.4102  52.8 19.9 .022  93
2024 07 19 11  06 20 12.954   +71 46 58.14  5.9629 5.4101  52.8 19.9 .022  93
2024 07 19 12  06 20 18.448   +71 47 18.19  5.9626 5.4100  52.9 19.9 .022  93
2024 07 19 13  06 20 23.945   +71 47 38.24  5.9622 5.4099  52.9 19.9 .022  93
2024 07 19 14  06 20 29.444   +71 47 58.30  5.9618 5.4097  52.9 19.9 .022  93
2024 07 19 15  06 20 34.946   +71 48 18.36  5.9615 5.4096  52.9 19.9 .022  93
2024 07 19 16  06 20 40.451   +71 48 38.43  5.9611 5.4095  52.9 19.9 .022  93
2024 07 19 17  06 20 45.958   +71 48 58.50  5.9608 5.4094  52.9 19.9 .022  93
2024 07 19 18  06 20 51.467   +71 49 18.57  5.9604 5.4093  52.9 19.9 .023  93
2024 07 19 19  06 20 56.979   +71 49 38.65  5.9600 5.4091  53.0 19.9 .023  93
2024 07 19 20  06 21 02.494   +71 49 58.74  5.9597 5.4090  53.0 19.9 .023  93
2024 07 19 21  06 21 08.011   +71 50 18.82  5.9593 5.4089  53.0 19.9 .023  93
2024 07 19 22  06 21 13.531   +71 50 38.92  5.9589 5.4088  53.0 19.9 .023  93
2024 07 19 23  06 21 19.053   +71 50 59.01  5.9586 5.4087  53.0 19.9 .023  93
2024 07 20 00  06 21 24.578   +71 51 19.12  5.9582 5.4086  53.0 19.9 .023  93